PELICAN 3001

导读

PELICAN 3001是美国Planet公司Pelican低轨遥感卫星星座的一员,于2023年11月11日发射。作为新一代高分辨率遥感卫星,它运行于约475公里太阳同步轨道,单星重量120公斤,搭载自主研发推帚式光学载荷,全色分辨率可达0.3米,支持每日12次重访成像。 卫星率先搭载英伟达Jetson平台实现AI在轨计算,可大幅缩短数据交付周期,能为农业、林业、情报等领域提供高频次、高质量地球观测数据,是商业遥感卫星技术升级的代表性成果。

Basic Information
目录编号:
58296
目录名称:
PELICAN-1 3001
国际标识:
2023-174AS
轨道中心:
EARTH
卫星名称:
PELICAN 3001
卫星全名:
--
卫星状态:
在轨 (已飞行989 天)
发射日期:
2023-11-11 UTC
国别 :
美国 (US)
星等 :
--
Orbit Information
数据来源 国际轨道数据
星历时间: 2026-07-27T02:26:50+0800
1天前
查看轨道信息
半长轴: 6731.355km
偏心率: 0.0005142
轨道倾角: 97.400°
近地点辐角 171.885°
升交点赤经 310.553°
平近点角 188.250°
近地点: 349.756km
远地点: 356.68km
周期: 91.604分钟
每日圈数: 15.719874
Detailed Information
使用方式:
暂无
2D Orbit Map
3D Orbit Map
Orbit Altitude Analysis Chart
Orbit Inclination Analysis Chart
Orbit Comprehensive Analysis Chart
View Comprehensive Chart